User: anonymous   Login
Location: Unspecified
(0.0000°N, 0.0000°E)
Time: 17:42:48
(UTC+00:00)
Language:

Cosmos 1633 - Orbit

View from above orbital plane
View from above orbital plane
View from above satellite
View from above satellite

Ground track
Ground track

The orbit data is extracted from the following two-line orbital elements,

1 15592U 85020A   18200.34070349  .00001009  00000-0  33784-4 0  9997
2 15592  82.5387 281.0146 0012586 204.7114 155.3525 15.29639019824982
Epoch (UTC): 19 July 2018 08:10:36
Eccentricity: 0.0012586
inclination: 82.5387°
perigee height: 468 km
apogee height: 485 km
right ascension of ascending node: 281.0146°
argument of perigee: 204.7114°
revolutions per day: 15.29639019
mean anomaly at epoch: 155.3525°
orbit number at epoch: 82498

The dashed part of the orbit path shows where the satellite is in the earth's shadow,  

DLR